Regional Weather Roundup
Issued by NWS Tiyan, Guam

Home | Current Version | Previous Version | Text Only | Print | Product List | Glossary On
Versions: 1 2 3 4 5 6 7 8 9 10 11 12 13 14 15 16 17 18 19 20 21 22 23 24 25 26 27 28 29 30 31 32 33 34 35 36 37 38 39 40 41 42 43 44 45 46 47 48 49 50
000
ASGM40 PGUM 250812
RWRGUM
WEATHER ROUNDUP FOR THE MARIANAS
NATIONAL WEATHER SERVICE TIYAN GU
600 PM CHST SAT MAR 25 2017

GUZ001>004-250900-
MARIANA ISLANDS-

CITY           SKY/WX    TMP DP  RH WIND       PRES   REMARKS
GUAM AIRPORT   PTCLDY    84  73  70 E10       29.92R HX  91
ANDERSEN AFB   PTCLDY    81  72  74 E10       29.94R
ROTA AIRPORT   PTCLDY    81  73  78 E7        29.92R
TINIAN AP      PTCLDY    81  73  78 E8        29.90R
SAIPAN AP      PTCLDY    81  73  78 E8        29.91R

$$




USA.gov is the U.S. government's official web portal to all federal, state and local government web resources and services.